Location: Wien
(48.2082°N, 16.3738°E)
Time: 15:44:24
(UTC+02:00)

MOZHAYETS 4 - Pass Details

Date: 23 March 2019
Orbit: 663 x 679 km, 98.0° (Epoch: 25 April)

Event Time Altitude Azimuth Distance (km) Brightness Sun altitude
Exits shadow 00:46:58 13° 20° (NNE) 1,888 10.6 -40.0°
Drops below altitude 10° 00:47:44 10° 13° (NNE) 2,111 11.0 -39.9°
Sets 00:50:25 0° 358° (N) 3,034 11.9 -39.8°
